Flag for Bahamas Weather past 2 weeks in Freeport, Bahamas

Now
79 °F

Passing clouds.


Feels Like: 83 °F
Forecast: 81 / 86 °F
Wind: 3 mph from Northwest

Location: Palm Beach International Airport

Current Time: Aug 23, 2014 at 7:48:03 AM

Latest Report: Aug 23, 2014 at 6:53 AM


Visibility: 10 mi

Pressure: 29.95 "Hg

Humidity: 90%

Dew point: 76 °F

Location of FreeportLocation

Historic Weather in Freeport — Graph

°F

Freeport temperature yesterday

Maximum temperature yesterday: 91 °F (at 12:53 PM)
Minimum temperature yesterday: 79 °F (at 3:53 AM)
Average temperature yesterday: 86 °F

Past Weeks' High & Low Weather Summary

 TemperatureHumidityPressure
High93 °F (Aug 10, 1:53 PM)97% (Aug 16, 5:00 PM)30.12 "Hg (Aug 16, 5:00 PM)
Low74 °F (Aug 15, 2:53 PM)47% (Aug 10, 1:53 PM)29.94 "Hg (Aug 23, 4:53 AM)
Average83 °F76%30.03 "Hg
* Reported Aug 8 5:53 AM — Aug 23 5:53 AM, Freeport, Weather by CustomWeather, © 2014

Note: Actual official high and low records may vary slightly from our data, if they occured in-between our weather recording intervals... More about our weather records

Advertising

Freeport weather history for previous 24 hours

 ConditionsComfort  
Time TempWeatherWind HumidityBarometerVisibility
5:53 AM
Aug 23
80 °FPassing clouds.3 mph90%29.94 "Hg10 mi
4:53 AM80 °FPassing clouds.5 mph90%29.94 "Hg10 mi
3:53 AM80 °FClear.No wind85%29.94 "Hg10 mi
2:53 AM80 °FPassing clouds.3 mph85%29.96 "Hg10 mi
1:53 AM83 °FPassing clouds.3 mph77%29.96 "Hg10 mi
12:53 AM84 °FPassing clouds.8 mph74%29.98 "Hg10 mi
11:53 PM
Aug 22
84 °FPassing clouds.7 mph74%30.00 "Hg10 mi
10:53 PM84 °FPassing clouds.6 mph74%30.01 "Hg10 mi
9:53 PM85 °FPassing clouds.9 mph72%30.01 "Hg10 mi
8:53 PM86 °FPassing clouds.8 mph70%30.01 "Hg10 mi
7:53 PM86 °FPassing clouds.10 mph67%29.99 "Hg10 mi
6:53 PM88 °FPassing clouds.9 mph61%29.98 "Hg10 mi
5:53 PM90 °FScattered clouds.9 mph57%29.99 "Hg10 mi
4:53 PM90 °FScattered clouds.9 mph57%30.00 "Hg10 mi
3:53 PM91 °FThunderstorms. Scattered clouds.7 mph57%30.00 "Hg10 mi
2:53 PM91 °FThunderstorms. Scattered clouds.9 mph57%30.03 "Hg10 mi
1:53 PM91 °FThunderstorms. Scattered clouds.13 mph57%30.04 "Hg10 mi
12:53 PM91 °FScattered clouds.8 mph56%30.05 "Hg10 mi
11:53 AM90 °FScattered clouds.6 mph59%30.07 "Hg10 mi
10:53 AM88 °FThunderstorms. Broken clouds.3 mph67%30.08 "Hg10 mi
9:53 AM85 °FThunderstorms. Broken clouds.6 mph77%30.08 "Hg7 mi
8:53 AM83 °FScattered clouds.No wind82%30.06 "Hg10 mi
7:53 AM82 °FPassing clouds.3 mph85%30.06 "Hg10 mi
Weather by CustomWeather, © 2014

See weather overviewHow to use our weather pages